Voltar ao catálogo

PEGASUS DEB

AtivoPO
NORAD 24980·DEBRIS·🇺🇸 United States

Lançado May 19, 1994 de Vandenberg Space Force Base

Loading…

Próximas Passagens (próximas 24 horas)

TLE

AtualizadoSource: Space-Track

Época: Sep 13, 2026, 22:33 UTC

1 24980U 94029ACN 26256.94009168  .00016208  00000-0  11997-2 0  9991
2 24980  81.5671  84.9609 0133679  52.9166 308.4184 14.96079184561398

Acompanhe PEGASUS DEB em tempo real com AllMySat

Download on the App Store